Location: *
(46.1200°N, 11.2700°E)
Time: 09:20:55
(UTC+00:00)

SL-16 R/B - Pass Details

Date: 02 March 2021
Orbit: 843 x 845 km, 71.0° (Epoch: 18 April)

Event Time Altitude Azimuth Distance (km) Brightness Sun altitude
Rises 18:00:37 0° 203° (SSW) 3,387 5.6 -10.8°
Reaches altitude 10° 18:03:03 10° 203° (SSW) 2,457 4.9 -11.2°
Maximum altitude 18:08:42 88° 117° (ESE) 851 2.2 -12.2°
Drops below altitude 10° 18:14:24 10° 27° (NNE) 2,475 4.4 -13.2°
Sets 18:16:51 0° 27° (NNE) 3,415 5.1 -13.6°
